Date String (YYYY-MM-DD hh:mm:ss) UTC,Instrument flags,Ambient pressure (hPa),Sample flow (lpm),Bypass flow (lpm),Sample temperature (°C),Ambient temperature (°C),ASC tube jacket temperature (°C),LED temperature (°C),Box temperature (°C),Sample RH (%),Span deviation,Mass concentration (μg/m³),Mass concentration (μg/m³),Mass concentration (μg/m³)
DateTimeUTC,F1_M11,P_M11,Q1_M11,Q2_M11,T1_M11,T2_M11,T3_M11,T4_M11,T5_M11,U1_M11,ZSPAN_M11,X2_M11,X0_M11,X1_M11
2022-07-06 11:00:00,,0829.0,4.99,0.00,32.2,28.2,00.0,40.3,32.7,34.4,-000.5,0006.09,0010.43,0005.13
2022-07-06 11:01:00,,0829.0,5.01,0.00,32.2,28.3,00.0,40.3,32.6,34.4,-000.7,0006.08,0010.41,0005.09
2022-07-06 11:02:00,,0829.1,5.00,0.00,32.2,28.5,00.0,40.3,32.6,34.4,-000.5,0005.99,0010.11,0005.05
2022-07-06 11:03:00,,0829.1,5.00,0.00,32.2,28.6,00.0,40.3,32.6,34.5,-000.7,0005.91,0010.42,0005.03
2022-07-06 11:04:00,,0829.0,5.00,0.00,32.2,28.7,00.0,40.3,32.6,34.6,-000.6,0005.88,0010.68,0004.99
2022-07-06 11:05:00,,0829.1,5.00,0.00,32.1,28.8,00.0,40.3,32.6,34.7,-000.3,0005.82,0010.67,0004.96
2022-07-06 11:06:00,,0829.1,5.00,0.00,32.1,28.9,00.0,40.3,32.6,34.8,-000.5,0005.76,0010.69,0004.93
2022-07-06 11:07:00,,0829.1,5.01,0.00,32.0,29.0,00.0,40.3,32.7,34.8,-000.3,0005.74,0011.91,0004.90
2022-07-06 11:08:00,,0829.0,5.00,0.00,32.0,29.1,00.0,40.4,32.7,34.9,-000.1,0005.74,0012.19,0004.89
2022-07-06 11:09:00,,0829.0,5.00,0.00,32.0,29.1,00.0,40.4,32.7,35.0,0000.1,0005.68,0012.57,0004.88
2022-07-06 11:10:00,,0829.0,5.00,0.00,32.1,29.2,00.0,40.4,32.8,34.7,0000.3,0005.66,0013.12,0004.88
2022-07-06 11:11:00,,0829.0,5.00,0.00,32.1,29.3,00.0,40.4,32.9,34.6,0000.7,0005.67,0013.80,0004.89
2022-07-06 11:12:00,,0829.1,5.00,0.00,32.2,29.3,00.0,40.4,32.9,34.6,0001.2,0005.66,0014.76,0004.91
2022-07-06 11:13:00,,0829.0,5.01,0.00,32.2,29.3,00.0,40.4,32.9,34.6,0001.1,0005.72,0014.77,0004.92
2022-07-06 11:14:00,,0829.0,5.01,0.00,32.1,29.4,00.0,40.4,32.9,34.6,0000.8,0005.77,0014.62,0004.94
2022-07-06 11:15:00,,0829.1,5.00,0.00,32.1,29.4,00.0,40.4,32.9,34.6,-000.1,0005.80,0014.80,0004.96
2022-07-06 11:16:00,,0829.1,5.00,0.00,32.1,29.5,00.0,40.4,32.9,34.7,-000.3,0005.84,0014.91,0004.97
2022-07-06 11:17:00,,0829.0,5.00,0.00,32.1,29.0,00.0,40.4,32.9,34.7,-000.9,0005.84,0015.35,0004.98
2022-07-06 11:18:00,,0829.0,5.02,0.00,32.0,28.3,00.0,40.3,32.8,34.8,-001.4,0005.83,0014.08,0004.98
2022-07-06 11:19:00,,0829.0,4.98,0.00,31.9,28.0,00.0,40.3,32.6,34.9,-001.6,0005.87,0013.97,0004.99
2022-07-06 11:20:00,,0829.0,5.01,0.00,31.8,28.0,00.0,40.3,32.5,35.2,-001.6,0005.94,0013.59,0005.00
2022-07-06 11:21:00,,0829.1,5.01,0.00,31.9,28.1,00.0,40.2,32.6,35.0,-001.7,0005.98,0013.11,0005.02
2022-07-06 11:22:00,,0829.0,4.99,0.00,32.1,28.2,00.0,40.2,32.7,34.6,-001.5,0005.95,0012.47,0005.00
2022-07-06 11:23:00,,0829.1,5.00,0.00,32.2,28.3,00.0,40.2,32.6,34.4,-001.7,0005.97,0011.50,0005.00
2022-07-06 11:24:00,,0829.1,5.01,0.00,32.2,28.4,00.0,40.2,32.6,34.4,-001.6,0005.93,0011.38,0005.00
2022-07-06 11:25:00,,0829.0,4.99,0.00,32.2,28.5,00.0,40.2,32.6,34.4,-001.4,0005.91,0011.06,0005.00
2022-07-06 11:26:00,,0829.0,5.00,0.00,32.1,28.7,00.0,40.2,32.6,34.5,-001.1,0005.89,0010.64,0004.99
2022-07-06 11:27:00,,0829.1,5.01,0.00,32.1,28.8,00.0,40.3,32.6,34.6,-000.9,0005.94,0010.69,0005.00
2022-07-06 11:28:00,,0829.0,5.00,0.00,32.1,28.9,00.0,40.3,32.6,34.6,-000.5,0005.96,0010.15,0005.01
2022-07-06 11:29:00,,0829.1,4.99,0.00,32.0,28.9,00.0,40.3,32.6,34.7,-000.0,0006.00,0010.22,0005.04
2022-07-06 11:30:00,,0829.1,5.00,0.00,32.0,29.0,00.0,40.3,32.7,34.7,0000.2,0006.00,0010.20,0005.06
2022-07-06 11:31:00,,0829.1,4.98,0.00,32.0,29.1,00.0,40.3,32.7,34.8,0000.5,0005.98,0010.22,0005.06
2022-07-06 11:32:00,,0829.1,4.99,0.00,31.9,29.1,00.0,40.3,32.7,34.9,0000.4,0006.00,0010.23,0005.09
2022-07-06 11:33:00,,0829.2,5.00,0.00,31.9,29.2,00.0,40.3,32.7,34.9,0000.1,0006.07,0010.35,0005.14
2022-07-06 11:34:00,,0829.2,5.00,0.00,31.8,29.2,00.0,40.3,32.7,35.0,-000.5,0006.08,0010.32,0005.17
2022-07-06 11:35:00,,0829.2,5.00,0.00,31.8,29.3,00.0,40.3,32.8,35.0,-000.7,0006.15,0010.42,0005.21
2022-07-06 11:36:00,,0829.2,4.99,0.00,32.0,29.3,00.0,40.3,32.9,34.7,-000.8,0006.22,0010.84,0005.24
2022-07-06 11:37:00,,0829.2,4.99,0.00,32.1,28.7,00.0,40.2,32.8,34.5,-000.9,0006.23,0011.12,0005.26
2022-07-06 11:38:00,,0829.2,5.01,0.00,32.1,28.1,00.0,40.2,32.7,34.5,-000.7,0006.18,0011.21,0005.25
2022-07-06 11:39:00,,0829.2,5.01,0.00,32.0,27.9,00.0,40.2,32.6,34.6,-000.7,0006.18,0011.42,0005.24
2022-07-06 11:40:00,,0829.2,4.99,0.00,31.9,27.9,00.0,40.2,32.4,34.8,-000.6,0006.13,0011.30,0005.23
2022-07-06 11:41:00,,0829.2,5.01,0.00,31.8,28.0,00.0,40.1,32.4,35.1,-000.7,0006.14,0011.34,0005.21
2022-07-06 11:42:00,,0829.2,5.00,0.00,31.8,28.1,00.0,40.1,32.5,34.9,-000.9,0006.16,0011.32,0005.20
2022-07-06 11:43:00,,0829.3,4.99,0.00,32.0,28.2,00.0,40.1,32.6,34.6,-000.9,0006.10,0011.16,0005.18
2022-07-06 11:44:00,,0829.3,5.01,0.00,32.0,28.4,00.0,40.1,32.6,34.5,-001.3,0006.07,0011.11,0005.17
2022-07-06 11:45:00,,0829.3,5.00,0.00,32.0,28.5,00.0,40.1,32.5,34.5,-001.5,0006.08,0011.18,0005.16
2022-07-06 11:46:00,,0829.3,5.00,0.00,32.0,28.6,00.0,40.1,32.5,34.5,-001.5,0006.08,0011.24,0005.16
2022-07-06 11:47:00,,0829.3,4.99,0.00,32.0,28.7,00.0,40.2,32.5,34.6,-001.7,0006.04,0010.84,0005.17
2022-07-06 11:48:00,,0829.3,5.00,0.00,31.9,28.8,00.0,40.2,32.5,34.7,-001.6,0006.06,0010.60,0005.19
2022-07-06 11:49:00,,0829.2,5.00,0.00,31.9,28.9,00.0,40.2,32.6,34.7,-001.5,0006.12,0010.52,0005.23
2022-07-06 11:50:00,,0829.2,4.99,0.00,31.9,29.0,00.0,40.2,32.6,34.8,-001.2,0006.18,0010.47,0005.27
2022-07-06 11:51:00,,0829.3,5.00,0.00,31.8,29.0,00.0,40.2,32.6,34.9,-001.3,0006.25,0010.51,0005.31
2022-07-06 11:52:00,,0829.3,5.01,0.00,31.8,29.1,00.0,40.2,32.6,34.9,-001.6,0006.28,0010.70,0005.34
2022-07-06 11:53:00,,0829.2,4.99,0.00,31.8,29.2,00.0,40.2,32.6,35.0,-001.6,0006.29,0010.81,0005.37
2022-07-06 11:54:00,,0829.3,5.01,0.00,31.8,29.2,00.0,40.2,32.7,35.0,-001.5,0006.35,0010.97,0005.41
2022-07-06 11:55:00,,0829.2,4.99,0.00,31.9,29.2,00.0,40.2,32.8,34.7,-001.4,0006.41,0011.16,0005.44
2022-07-06 11:56:00,,0829.2,5.01,0.00,32.0,29.3,00.0,40.2,32.8,34.6,-000.7,0006.45,0011.45,0005.46
2022-07-06 11:57:00,,0829.2,5.00,0.00,32.0,29.3,00.0,40.2,32.8,34.5,-000.5,0006.49,0011.55,0005.47
2022-07-06 11:58:00,,0829.3,5.00,0.00,32.0,29.0,00.0,40.2,32.8,34.5,-000.5,0006.52,0011.76,0005.48
2022-07-06 11:59:00,,0829.2,5.00,0.00,32.0,28.2,00.0,40.1,32.7,34.5,-000.8,0006.54,0011.82,0005.50
